owner,sensor,date,latitude,longitude,relative_humidity,qcFlag 
COMPS,ioos:station:USF.COMPS:C12:1,2019-04-01T00:05:00Z,27.4980,-83.7220,86.52,1111122 
COMPS,ioos:station:USF.COMPS:C12:1,2019-04-01T00:35:00Z,27.4980,-83.7220,87.47,1111122 
COMPS,ioos:station:USF.COMPS:C12:1,2019-04-01T01:05:00Z,27.4980,-83.7220,90.05,1111122 
COMPS,ioos:station:USF.COMPS:C12:1,2019-04-01T01:35:00Z,27.4980,-83.7220,90.37,1111122 
COMPS,ioos:station:USF.COMPS:C12:1,2019-04-01T02:05:00Z,27.4980,-83.7220,87.52,1111122 
COMPS,ioos:station:USF.COMPS:C12:1,2019-04-01T02:35:00Z,27.4980,-83.7220,87.33,1111122 
COMPS,ioos:station:USF.COMPS:C12:1,2019-04-01T03:05:00Z,27.4980,-83.7220,88.28,1111122 
COMPS,ioos:station:USF.COMPS:C12:1,2019-04-01T03:35:00Z,27.4980,-83.7220,84.26,1111122 
COMPS,ioos:station:USF.COMPS:C12:1,2019-04-01T04:05:00Z,27.4980,-83.7220,81.09,1111122 
COMPS,ioos:station:USF.COMPS:C12:1,2019-04-01T04:35:00Z,27.4980,-83.7220,80.2,1111122 
COMPS,ioos:station:USF.COMPS:C12:1,2019-04-01T05:05:00Z,27.4980,-83.7220,79.95,1111122 
COMPS,ioos:station:USF.COMPS:C12:1,2019-04-01T05:35:00Z,27.4980,-83.7220,79.62,1111122 
COMPS,ioos:station:USF.COMPS:C12:1,2019-04-01T06:05:00Z,27.4980,-83.7220,81.04,1111122 
COMPS,ioos:station:USF.COMPS:C12:1,2019-04-01T06:35:00Z,27.4980,-83.7220,83.8,1111122 
COMPS,ioos:station:USF.COMPS:C12:1,2019-04-01T07:05:00Z,27.4980,-83.7220,85.94,1111122 
COMPS,ioos:station:USF.COMPS:C12:1,2019-04-01T07:35:00Z,27.4980,-83.7220,87.18,1111122 
COMPS,ioos:station:USF.COMPS:C12:1,2019-04-01T08:05:00Z,27.4980,-83.7220,84.71,1111122 
COMPS,ioos:station:USF.COMPS:C12:1,2019-04-01T08:35:00Z,27.4980,-83.7220,85.8,1111122 
COMPS,ioos:station:USF.COMPS:C12:1,2019-04-01T09:05:00Z,27.4980,-83.7220,89.98,1111122 
COMPS,ioos:station:USF.COMPS:C12:1,2019-04-01T09:35:00Z,27.4980,-83.7220,91.36,1111122 
COMPS,ioos:station:USF.COMPS:C12:1,2019-04-01T10:05:00Z,27.4980,-83.7220,91.18,1111122 
COMPS,ioos:station:USF.COMPS:C12:1,2019-04-01T10:35:00Z,27.4980,-83.7220,90.68,1111122 
COMPS,ioos:station:USF.COMPS:C12:1,2019-04-01T11:05:00Z,27.4980,-83.7220,89.95,1111122 
COMPS,ioos:station:USF.COMPS:C12:1,2019-04-01T11:35:00Z,27.4980,-83.7220,89.65,1111122 
COMPS,ioos:station:USF.COMPS:C12:1,2019-04-01T12:05:00Z,27.4980,-83.7220,89.33,1111122 
COMPS,ioos:station:USF.COMPS:C12:1,2019-04-01T12:35:00Z,27.4980,-83.7220,89.73,1111122 
COMPS,ioos:station:USF.COMPS:C12:1,2019-04-01T13:05:00Z,27.4980,-83.7220,89.86,1111122 
COMPS,ioos:station:USF.COMPS:C12:1,2019-04-01T13:35:00Z,27.4980,-83.7220,90.78,1111122 
COMPS,ioos:station:USF.COMPS:C12:1,2019-04-01T15:05:00Z,27.4980,-83.7220,91.42,1111122 
COMPS,ioos:station:USF.COMPS:C12:1,2019-04-01T15:35:00Z,27.4980,-83.7220,91.92,1111122 
COMPS,ioos:station:USF.COMPS:C12:1,2019-04-01T16:05:00Z,27.4980,-83.7220,92.74,1111122 
COMPS,ioos:station:USF.COMPS:C12:1,2019-04-01T16:35:00Z,27.4980,-83.7220,93.6,1111122 
COMPS,ioos:station:USF.COMPS:C12:1,2019-04-01T17:05:00Z,27.4980,-83.7220,94.08,1111122 
COMPS,ioos:station:USF.COMPS:C12:1,2019-04-01T17:35:00Z,27.4980,-83.7220,94.21,1111122 
COMPS,ioos:station:USF.COMPS:C12:1,2019-04-01T18:05:00Z,27.4980,-83.7220,94.53,1111122 
COMPS,ioos:station:USF.COMPS:C12:1,2019-04-01T18:35:00Z,27.4980,-83.7220,94.81,1111122 
COMPS,ioos:station:USF.COMPS:C12:1,2019-04-01T19:05:00Z,27.4980,-83.7220,95.07,1111122 
COMPS,ioos:station:USF.COMPS:C12:1,2019-04-01T19:35:00Z,27.4980,-83.7220,93.02,1111122 
COMPS,ioos:station:USF.COMPS:C12:1,2019-04-01T20:05:00Z,27.4980,-83.7220,90.11,1111122 
COMPS,ioos:station:USF.COMPS:C12:1,2019-04-01T20:35:00Z,27.4980,-83.7220,89.59,1111122 
COMPS,ioos:station:USF.COMPS:C12:1,2019-04-01T21:05:00Z,27.4980,-83.7220,88.57,1111122 
COMPS,ioos:station:USF.COMPS:C12:1,2019-04-01T21:35:00Z,27.4980,-83.7220,88.11,1111122 
COMPS,ioos:station:USF.COMPS:C12:1,2019-04-01T22:05:00Z,27.4980,-83.7220,87.46,1111122 
COMPS,ioos:station:USF.COMPS:C12:1,2019-04-01T22:35:00Z,27.4980,-83.7220,86.27,1111122 
COMPS,ioos:station:USF.COMPS:C12:1,2019-04-01T23:05:00Z,27.4980,-83.7220,86.41,1111122 
COMPS,ioos:station:USF.COMPS:C12:1,2019-04-01T23:35:00Z,27.4980,-83.7220,86.38,1111122 
COMPS,ioos:station:USF.COMPS:C12:1,2019-04-02T00:05:00Z,27.4980,-83.7220,86.92,1111122 
COMPS,ioos:station:USF.COMPS:C12:1,2019-04-02T00:35:00Z,27.4980,-83.7220,87.48,1111122 
COMPS,ioos:station:USF.COMPS:C12:1,2019-04-02T01:05:00Z,27.4980,-83.7220,87.63,1111122 
COMPS,ioos:station:USF.COMPS:C12:1,2019-04-02T01:35:00Z,27.4980,-83.7220,87.5,1111122 
COMPS,ioos:station:USF.COMPS:C12:1,2019-04-02T02:05:00Z,27.4980,-83.7220,87.8,1111122 
COMPS,ioos:station:USF.COMPS:C12:1,2019-04-02T02:35:00Z,27.4980,-83.7220,88.62,1111122 
COMPS,ioos:station:USF.COMPS:C12:1,2019-04-02T03:05:00Z,27.4980,-83.7220,90.05,1111122 
COMPS,ioos:station:USF.COMPS:C12:1,2019-04-02T03:35:00Z,27.4980,-83.7220,90.75,1111122 
COMPS,ioos:station:USF.COMPS:C12:1,2019-04-02T04:05:00Z,27.4980,-83.7220,90.94,1111122 
COMPS,ioos:station:USF.COMPS:C12:1,2019-04-02T04:35:00Z,27.4980,-83.7220,91.0,1111122 
COMPS,ioos:station:USF.COMPS:C12:1,2019-04-02T05:05:00Z,27.4980,-83.7220,90.47,1111122 
COMPS,ioos:station:USF.COMPS:C12:1,2019-04-02T05:35:00Z,27.4980,-83.7220,91.04,1111122 
COMPS,ioos:station:USF.COMPS:C12:1,2019-04-02T06:05:00Z,27.4980,-83.7220,91.74,1111122 
COMPS,ioos:station:USF.COMPS:C12:1,2019-04-02T06:35:00Z,27.4980,-83.7220,92.13,1111122 
COMPS,ioos:station:USF.COMPS:C12:1,2019-04-02T07:05:00Z,27.4980,-83.7220,91.52,1111122 
COMPS,ioos:station:USF.COMPS:C12:1,2019-04-02T07:35:00Z,27.4980,-83.7220,90.53,1111122 
COMPS,ioos:station:USF.COMPS:C12:1,2019-04-02T08:05:00Z,27.4980,-83.7220,89.84,1111122 
COMPS,ioos:station:USF.COMPS:C12:1,2019-04-02T08:35:00Z,27.4980,-83.7220,89.14,1111122 
COMPS,ioos:station:USF.COMPS:C12:1,2019-04-02T09:05:00Z,27.4980,-83.7220,89.3,1111122 
COMPS,ioos:station:USF.COMPS:C12:1,2019-04-02T09:35:00Z,27.4980,-83.7220,90.04,1111122 
COMPS,ioos:station:USF.COMPS:C12:1,2019-04-02T10:05:00Z,27.4980,-83.7220,91.05,1111122 
COMPS,ioos:station:USF.COMPS:C12:1,2019-04-02T10:35:00Z,27.4980,-83.7220,91.76,1111122 
COMPS,ioos:station:USF.COMPS:C12:1,2019-04-02T11:05:00Z,27.4980,-83.7220,92.62,1111122 
COMPS,ioos:station:USF.COMPS:C12:1,2019-04-02T11:35:00Z,27.4980,-83.7220,93.07,1111122 
COMPS,ioos:station:USF.COMPS:C12:1,2019-04-02T12:05:00Z,27.4980,-83.7220,93.56,1111122 
COMPS,ioos:station:USF.COMPS:C12:1,2019-04-02T12:35:00Z,27.4980,-83.7220,94.4,1111122 
COMPS,ioos:station:USF.COMPS:C12:1,2019-04-02T13:05:00Z,27.4980,-83.7220,94.7,1111122 
COMPS,ioos:station:USF.COMPS:C12:1,2019-04-02T13:35:00Z,27.4980,-83.7220,94.41,1111122 
COMPS,ioos:station:USF.COMPS:C12:1,2019-04-02T14:05:00Z,27.4980,-83.7220,92.46,1111122 
COMPS,ioos:station:USF.COMPS:C12:1,2019-04-02T14:35:00Z,27.4980,-83.7220,91.11,1111122 
COMPS,ioos:station:USF.COMPS:C12:1,2019-04-02T15:05:00Z,27.4980,-83.7220,91.2,1111122 
COMPS,ioos:station:USF.COMPS:C12:1,2019-04-02T15:35:00Z,27.4980,-83.7220,91.27,1111122 
COMPS,ioos:station:USF.COMPS:C12:1,2019-04-02T16:05:00Z,27.4980,-83.7220,90.69,1111122 
COMPS,ioos:station:USF.COMPS:C12:1,2019-04-02T16:35:00Z,27.4980,-83.7220,90.75,1111122 
COMPS,ioos:station:USF.COMPS:C12:1,2019-04-02T17:05:00Z,27.4980,-83.7220,90.03,1111122 
COMPS,ioos:station:USF.COMPS:C12:1,2019-04-02T17:35:00Z,27.4980,-83.7220,88.62,1111122 
COMPS,ioos:station:USF.COMPS:C12:1,2019-04-02T18:05:00Z,27.4980,-83.7220,86.69,1111122 
COMPS,ioos:station:USF.COMPS:C12:1,2019-04-02T18:35:00Z,27.4980,-83.7220,85.75,1111122 
COMPS,ioos:station:USF.COMPS:C12:1,2019-04-02T20:05:00Z,27.4980,-83.7220,82.76,1111122 
COMPS,ioos:station:USF.COMPS:C12:1,2019-04-02T20:35:00Z,27.4980,-83.7220,81.99,1111122 
COMPS,ioos:station:USF.COMPS:C12:1,2019-04-02T21:05:00Z,27.4980,-83.7220,79.73,1111122 
COMPS,ioos:station:USF.COMPS:C12:1,2019-04-02T21:35:00Z,27.4980,-83.7220,79.18,1111122 
COMPS,ioos:station:USF.COMPS:C12:1,2019-04-02T22:05:00Z,27.4980,-83.7220,77.93,1111122 
COMPS,ioos:station:USF.COMPS:C12:1,2019-04-02T22:35:00Z,27.4980,-83.7220,76.61,1111122 
COMPS,ioos:station:USF.COMPS:C12:1,2019-04-02T23:05:00Z,27.4980,-83.7220,71.57,1111122 
COMPS,ioos:station:USF.COMPS:C12:1,2019-04-02T23:35:00Z,27.4980,-83.7220,70.65,1111122 
COMPS,ioos:station:USF.COMPS:C12:1,2019-04-03T00:05:00Z,27.4980,-83.7220,70.37,1111122 
COMPS,ioos:station:USF.COMPS:C12:1,2019-04-03T00:35:00Z,27.4980,-83.7220,69.78,1111122 
COMPS,ioos:station:USF.COMPS:C12:1,2019-04-03T01:05:00Z,27.4980,-83.7220,68.77,1111122 
COMPS,ioos:station:USF.COMPS:C12:1,2019-04-03T01:35:00Z,27.4980,-83.7220,66.64,1111122 
COMPS,ioos:station:USF.COMPS:C12:1,2019-04-03T02:05:00Z,27.4980,-83.7220,66.22,1111122 
COMPS,ioos:station:USF.COMPS:C12:1,2019-04-03T02:35:00Z,27.4980,-83.7220,63.56,1111122 
COMPS,ioos:station:USF.COMPS:C12:1,2019-04-03T03:05:00Z,27.4980,-83.7220,65.63,1111122 
COMPS,ioos:station:USF.COMPS:C12:1,2019-04-03T03:35:00Z,27.4980,-83.7220,59.98,1111122 
COMPS,ioos:station:USF.COMPS:C12:1,2019-04-03T04:05:00Z,27.4980,-83.7220,55.87,1111122 
COMPS,ioos:station:USF.COMPS:C12:1,2019-04-03T04:35:00Z,27.4980,-83.7220,55.97,1111122 
COMPS,ioos:station:USF.COMPS:C12:1,2019-04-03T05:05:00Z,27.4980,-83.7220,62.16,1111122 
COMPS,ioos:station:USF.COMPS:C12:1,2019-04-03T05:35:00Z,27.4980,-83.7220,63.48,1111122 
COMPS,ioos:station:USF.COMPS:C12:1,2019-04-03T06:05:00Z,27.4980,-83.7220,66.18,1111122 
COMPS,ioos:station:USF.COMPS:C12:1,2019-04-03T06:35:00Z,27.4980,-83.7220,66.94,1111122 
COMPS,ioos:station:USF.COMPS:C12:1,2019-04-03T07:05:00Z,27.4980,-83.7220,68.22,1111122 
COMPS,ioos:station:USF.COMPS:C12:1,2019-04-03T07:35:00Z,27.4980,-83.7220,69.54,1111122 
COMPS,ioos:station:USF.COMPS:C12:1,2019-04-03T08:05:00Z,27.4980,-83.7220,71.02,1111122 
COMPS,ioos:station:USF.COMPS:C12:1,2019-04-03T08:35:00Z,27.4980,-83.7220,74.49,1111122 
COMPS,ioos:station:USF.COMPS:C12:1,2019-04-03T09:05:00Z,27.4980,-83.7220,76.61,1111122 
COMPS,ioos:station:USF.COMPS:C12:1,2019-04-03T09:35:00Z,27.4980,-83.7220,76.74,1111122 
COMPS,ioos:station:USF.COMPS:C12:1,2019-04-03T10:05:00Z,27.4980,-83.7220,75.34,1111122 
COMPS,ioos:station:USF.COMPS:C12:1,2019-04-03T10:35:00Z,27.4980,-83.7220,77.26,1111122 
COMPS,ioos:station:USF.COMPS:C12:1,2019-04-03T11:05:00Z,27.4980,-83.7220,78.1,1111122 
COMPS,ioos:station:USF.COMPS:C12:1,2019-04-03T11:35:00Z,27.4980,-83.7220,78.23,1111122 
COMPS,ioos:station:USF.COMPS:C12:1,2019-04-03T12:05:00Z,27.4980,-83.7220,77.4,1111122 
COMPS,ioos:station:USF.COMPS:C12:1,2019-04-03T12:35:00Z,27.4980,-83.7220,73.92,1111122 
COMPS,ioos:station:USF.COMPS:C12:1,2019-04-03T13:05:00Z,27.4980,-83.7220,72.54,1111122 
COMPS,ioos:station:USF.COMPS:C12:1,2019-04-03T13:35:00Z,27.4980,-83.7220,70.22,1111122 
COMPS,ioos:station:USF.COMPS:C12:1,2019-04-03T14:05:00Z,27.4980,-83.7220,70.33,1111122 
COMPS,ioos:station:USF.COMPS:C12:1,2019-04-03T14:35:00Z,27.4980,-83.7220,69.94,1111122 
COMPS,ioos:station:USF.COMPS:C12:1,2019-04-03T15:05:00Z,27.4980,-83.7220,65.4,1111122 
COMPS,ioos:station:USF.COMPS:C12:1,2019-04-03T15:35:00Z,27.4980,-83.7220,64.86,1111122 
COMPS,ioos:station:USF.COMPS:C12:1,2019-04-03T16:05:00Z,27.4980,-83.7220,59.86,1111122 
COMPS,ioos:station:USF.COMPS:C12:1,2019-04-03T16:35:00Z,27.4980,-83.7220,58.08,1111122 
COMPS,ioos:station:USF.COMPS:C12:1,2019-04-03T17:05:00Z,27.4980,-83.7220,58.06,1111122 
COMPS,ioos:station:USF.COMPS:C12:1,2019-04-03T17:35:00Z,27.4980,-83.7220,61.78,1111122 
COMPS,ioos:station:USF.COMPS:C12:1,2019-04-03T18:05:00Z,27.4980,-83.7220,63.06,1111122 
COMPS,ioos:station:USF.COMPS:C12:1,2019-04-03T18:35:00Z,27.4980,-83.7220,61.9,1111122 
COMPS,ioos:station:USF.COMPS:C12:1,2019-04-03T19:05:00Z,27.4980,-83.7220,62.32,1111122 
COMPS,ioos:station:USF.COMPS:C12:1,2019-04-03T19:35:00Z,27.4980,-83.7220,61.71,1111122 
COMPS,ioos:station:USF.COMPS:C12:1,2019-04-03T20:05:00Z,27.4980,-83.7220,61.98,1111122 
COMPS,ioos:station:USF.COMPS:C12:1,2019-04-03T20:35:00Z,27.4980,-83.7220,62.49,1111122 
COMPS,ioos:station:USF.COMPS:C12:1,2019-04-03T21:05:00Z,27.4980,-83.7220,62.51,1111122 
COMPS,ioos:station:USF.COMPS:C12:1,2019-04-03T21:35:00Z,27.4980,-83.7220,63.66,1111122 
COMPS,ioos:station:USF.COMPS:C12:1,2019-04-03T22:05:00Z,27.4980,-83.7220,67.6,1111122 
COMPS,ioos:station:USF.COMPS:C12:1,2019-04-03T22:35:00Z,27.4980,-83.7220,70.74,1111122 
COMPS,ioos:station:USF.COMPS:C12:1,2019-04-03T23:05:00Z,27.4980,-83.7220,71.16,1111122 
COMPS,ioos:station:USF.COMPS:C12:1,2019-04-03T23:35:00Z,27.4980,-83.7220,71.64,1111122 
COMPS,ioos:station:USF.COMPS:C12:1,2019-04-04T00:05:00Z,27.4980,-83.7220,71.98,1111122 
COMPS,ioos:station:USF.COMPS:C12:1,2019-04-04T00:35:00Z,27.4980,-83.7220,73.28,1111122 
COMPS,ioos:station:USF.COMPS:C12:1,2019-04-04T01:05:00Z,27.4980,-83.7220,73.51,1111122 
COMPS,ioos:station:USF.COMPS:C12:1,2019-04-04T01:35:00Z,27.4980,-83.7220,73.87,1111122 
COMPS,ioos:station:USF.COMPS:C12:1,2019-04-04T02:05:00Z,27.4980,-83.7220,73.86,1111122 
COMPS,ioos:station:USF.COMPS:C12:1,2019-04-04T02:35:00Z,27.4980,-83.7220,73.69,1111122 
COMPS,ioos:station:USF.COMPS:C12:1,2019-04-04T03:05:00Z,27.4980,-83.7220,73.71,1111122 
COMPS,ioos:station:USF.COMPS:C12:1,2019-04-04T03:35:00Z,27.4980,-83.7220,74.31,1111122 
COMPS,ioos:station:USF.COMPS:C12:1,2019-04-04T04:05:00Z,27.4980,-83.7220,76.19,1111122 
COMPS,ioos:station:USF.COMPS:C12:1,2019-04-04T04:35:00Z,27.4980,-83.7220,78.4,1111122 
COMPS,ioos:station:USF.COMPS:C12:1,2019-04-04T05:05:00Z,27.4980,-83.7220,77.22,1111122 
COMPS,ioos:station:USF.COMPS:C12:1,2019-04-04T05:35:00Z,27.4980,-83.7220,78.03,1111122 
COMPS,ioos:station:USF.COMPS:C12:1,2019-04-04T06:05:00Z,27.4980,-83.7220,78.56,1111122 
COMPS,ioos:station:USF.COMPS:C12:1,2019-04-04T06:35:00Z,27.4980,-83.7220,79.67,1111122 
COMPS,ioos:station:USF.COMPS:C12:1,2019-04-04T07:05:00Z,27.4980,-83.7220,80.08,1111122 
COMPS,ioos:station:USF.COMPS:C12:1,2019-04-04T07:35:00Z,27.4980,-83.7220,80.39,1111122 
COMPS,ioos:station:USF.COMPS:C12:1,2019-04-04T08:05:00Z,27.4980,-83.7220,80.72,1111122 
COMPS,ioos:station:USF.COMPS:C12:1,2019-04-04T08:35:00Z,27.4980,-83.7220,81.47,1111122 
COMPS,ioos:station:USF.COMPS:C12:1,2019-04-04T09:05:00Z,27.4980,-83.7220,82.32,1111122 
COMPS,ioos:station:USF.COMPS:C12:1,2019-04-04T09:35:00Z,27.4980,-83.7220,83.56,1111122 
COMPS,ioos:station:USF.COMPS:C12:1,2019-04-04T10:05:00Z,27.4980,-83.7220,83.45,1111122 
COMPS,ioos:station:USF.COMPS:C12:1,2019-04-04T10:35:00Z,27.4980,-83.7220,83.95,1111122 
COMPS,ioos:station:USF.COMPS:C12:1,2019-04-04T11:05:00Z,27.4980,-83.7220,84.92,1111122 
COMPS,ioos:station:USF.COMPS:C12:1,2019-04-04T11:35:00Z,27.4980,-83.7220,84.94,1111122 
COMPS,ioos:station:USF.COMPS:C12:1,2019-04-04T12:05:00Z,27.4980,-83.7220,85.43,1111122 
COMPS,ioos:station:USF.COMPS:C12:1,2019-04-04T12:35:00Z,27.4980,-83.7220,84.83,1111122 
COMPS,ioos:station:USF.COMPS:C12:1,2019-04-04T13:05:00Z,27.4980,-83.7220,84.96,1111122 
COMPS,ioos:station:USF.COMPS:C12:1,2019-04-04T13:35:00Z,27.4980,-83.7220,84.16,1111122 
COMPS,ioos:station:USF.COMPS:C12:1,2019-04-04T14:05:00Z,27.4980,-83.7220,83.2,1111122 
COMPS,ioos:station:USF.COMPS:C12:1,2019-04-04T14:35:00Z,27.4980,-83.7220,83.87,1111122 
COMPS,ioos:station:USF.COMPS:C12:1,2019-04-04T15:05:00Z,27.4980,-83.7220,85.22,1111122 
COMPS,ioos:station:USF.COMPS:C12:1,2019-04-04T15:35:00Z,27.4980,-83.7220,85.2,1111122 
COMPS,ioos:station:USF.COMPS:C12:1,2019-04-04T16:05:00Z,27.4980,-83.7220,84.61,1111122 
COMPS,ioos:station:USF.COMPS:C12:1,2019-04-04T16:35:00Z,27.4980,-83.7220,83.89,1111122 
COMPS,ioos:station:USF.COMPS:C12:1,2019-04-04T17:05:00Z,27.4980,-83.7220,83.85,1111122 
COMPS,ioos:station:USF.COMPS:C12:1,2019-04-04T17:35:00Z,27.4980,-83.7220,84.37,1111122 
COMPS,ioos:station:USF.COMPS:C12:1,2019-04-04T18:05:00Z,27.4980,-83.7220,84.6,1111122 
COMPS,ioos:station:USF.COMPS:C12:1,2019-04-04T18:35:00Z,27.4980,-83.7220,85.26,1111122 
COMPS,ioos:station:USF.COMPS:C12:1,2019-04-04T19:05:00Z,27.4980,-83.7220,85.93,1111122 
COMPS,ioos:station:USF.COMPS:C12:1,2019-04-04T19:35:00Z,27.4980,-83.7220,86.89,1111122 
COMPS,ioos:station:USF.COMPS:C12:1,2019-04-04T20:05:00Z,27.4980,-83.7220,86.84,1111122 
COMPS,ioos:station:USF.COMPS:C12:1,2019-04-04T20:35:00Z,27.4980,-83.7220,87.38,1111122 
COMPS,ioos:station:USF.COMPS:C12:1,2019-04-04T21:05:00Z,27.4980,-83.7220,87.71,1111122 
COMPS,ioos:station:USF.COMPS:C12:1,2019-04-04T21:35:00Z,27.4980,-83.7220,87.75,1111122 
COMPS,ioos:station:USF.COMPS:C12:1,2019-04-04T22:05:00Z,27.4980,-83.7220,87.65,1111122 
COMPS,ioos:station:USF.COMPS:C12:1,2019-04-04T22:35:00Z,27.4980,-83.7220,88.45,1111122 
COMPS,ioos:station:USF.COMPS:C12:1,2019-04-04T23:05:00Z,27.4980,-83.7220,89.25,1111122 
COMPS,ioos:station:USF.COMPS:C12:1,2019-04-04T23:35:00Z,27.4980,-83.7220,90.75,1111122 
COMPS,ioos:station:USF.COMPS:C12:1,2019-04-05T00:05:00Z,27.4980,-83.7220,92.18,1111122 
COMPS,ioos:station:USF.COMPS:C12:1,2019-04-05T00:35:00Z,27.4980,-83.7220,92.73,1111122 
COMPS,ioos:station:USF.COMPS:C12:1,2019-04-05T01:05:00Z,27.4980,-83.7220,92.9,1111122 
COMPS,ioos:station:USF.COMPS:C12:1,2019-04-05T01:35:00Z,27.4980,-83.7220,92.97,1111122 
COMPS,ioos:station:USF.COMPS:C12:1,2019-04-05T02:05:00Z,27.4980,-83.7220,92.88,1111122 
COMPS,ioos:station:USF.COMPS:C12:1,2019-04-05T02:35:00Z,27.4980,-83.7220,92.83,1111122 
COMPS,ioos:station:USF.COMPS:C12:1,2019-04-05T03:05:00Z,27.4980,-83.7220,92.93,1111122 
COMPS,ioos:station:USF.COMPS:C12:1,2019-04-05T03:35:00Z,27.4980,-83.7220,92.9,1111122 
COMPS,ioos:station:USF.COMPS:C12:1,2019-04-05T04:05:00Z,27.4980,-83.7220,92.27,1111122 
COMPS,ioos:station:USF.COMPS:C12:1,2019-04-05T04:35:00Z,27.4980,-83.7220,90.55,1111122 
COMPS,ioos:station:USF.COMPS:C12:1,2019-04-05T05:05:00Z,27.4980,-83.7220,89.28,1111122 
COMPS,ioos:station:USF.COMPS:C12:1,2019-04-05T05:35:00Z,27.4980,-83.7220,89.32,1111122 
COMPS,ioos:station:USF.COMPS:C12:1,2019-04-05T06:05:00Z,27.4980,-83.7220,90.06,1111122 
COMPS,ioos:station:USF.COMPS:C12:1,2019-04-05T06:35:00Z,27.4980,-83.7220,90.8,1111122 
COMPS,ioos:station:USF.COMPS:C12:1,2019-04-05T07:05:00Z,27.4980,-83.7220,91.51,1111122 
COMPS,ioos:station:USF.COMPS:C12:1,2019-04-05T07:35:00Z,27.4980,-83.7220,92.14,1111122 
COMPS,ioos:station:USF.COMPS:C12:1,2019-04-05T08:05:00Z,27.4980,-83.7220,91.68,1111122 
COMPS,ioos:station:USF.COMPS:C12:1,2019-04-05T08:35:00Z,27.4980,-83.7220,92.36,1111122 
COMPS,ioos:station:USF.COMPS:C12:1,2019-04-05T09:05:00Z,27.4980,-83.7220,92.64,1111122 
COMPS,ioos:station:USF.COMPS:C12:1,2019-04-05T09:35:00Z,27.4980,-83.7220,91.5,1111122 
COMPS,ioos:station:USF.COMPS:C12:1,2019-04-05T10:05:00Z,27.4980,-83.7220,90.76,1111122 
COMPS,ioos:station:USF.COMPS:C12:1,2019-04-05T10:35:00Z,27.4980,-83.7220,90.13,1111122 
COMPS,ioos:station:USF.COMPS:C12:1,2019-04-05T11:05:00Z,27.4980,-83.7220,90.41,1111122 
COMPS,ioos:station:USF.COMPS:C12:1,2019-04-05T11:35:00Z,27.4980,-83.7220,90.51,1111122 
COMPS,ioos:station:USF.COMPS:C12:1,2019-04-05T12:05:00Z,27.4980,-83.7220,90.84,1111122 
COMPS,ioos:station:USF.COMPS:C12:1,2019-04-05T12:35:00Z,27.4980,-83.7220,91.64,1111122 
COMPS,ioos:station:USF.COMPS:C12:1,2019-04-05T13:05:00Z,27.4980,-83.7220,92.38,1111122 
COMPS,ioos:station:USF.COMPS:C12:1,2019-04-05T13:35:00Z,27.4980,-83.7220,92.87,1111122 
COMPS,ioos:station:USF.COMPS:C12:1,2019-04-05T14:05:00Z,27.4980,-83.7220,93.16,1111122 
COMPS,ioos:station:USF.COMPS:C12:1,2019-04-05T14:35:00Z,27.4980,-83.7220,93.37,1111122 
COMPS,ioos:station:USF.COMPS:C12:1,2019-04-05T15:05:00Z,27.4980,-83.7220,93.46,1111122 
COMPS,ioos:station:USF.COMPS:C12:1,2019-04-05T15:35:00Z,27.4980,-83.7220,93.85,1111122 
COMPS,ioos:station:USF.COMPS:C12:1,2019-04-05T16:05:00Z,27.4980,-83.7220,94.29,1111122 
COMPS,ioos:station:USF.COMPS:C12:1,2019-04-05T16:35:00Z,27.4980,-83.7220,94.56,1111122 
COMPS,ioos:station:USF.COMPS:C12:1,2019-04-05T17:05:00Z,27.4980,-83.7220,94.78,1111122 
COMPS,ioos:station:USF.COMPS:C12:1,2019-04-05T17:35:00Z,27.4980,-83.7220,94.86,1111122 
COMPS,ioos:station:USF.COMPS:C12:1,2019-04-05T18:05:00Z,27.4980,-83.7220,94.93,1111122 
COMPS,ioos:station:USF.COMPS:C12:1,2019-04-05T18:35:00Z,27.4980,-83.7220,94.89,1111122 
COMPS,ioos:station:USF.COMPS:C12:1,2019-04-05T19:05:00Z,27.4980,-83.7220,94.99,1111122 
COMPS,ioos:station:USF.COMPS:C12:1,2019-04-05T19:35:00Z,27.4980,-83.7220,95.11,1111122 
COMPS,ioos:station:USF.COMPS:C12:1,2019-04-05T20:05:00Z,27.4980,-83.7220,95.18,1111122 
COMPS,ioos:station:USF.COMPS:C12:1,2019-04-05T20:35:00Z,27.4980,-83.7220,95.36,1111122 
COMPS,ioos:station:USF.COMPS:C12:1,2019-04-05T21:05:00Z,27.4980,-83.7220,95.41,1111122 
COMPS,ioos:station:USF.COMPS:C12:1,2019-04-05T21:35:00Z,27.4980,-83.7220,95.36,1111122 
COMPS,ioos:station:USF.COMPS:C12:1,2019-04-05T22:05:00Z,27.4980,-83.7220,95.42,1111122 
COMPS,ioos:station:USF.COMPS:C12:1,2019-04-05T22:35:00Z,27.4980,-83.7220,95.56,1111122 
COMPS,ioos:station:USF.COMPS:C12:1,2019-04-05T23:05:00Z,27.4980,-83.7220,95.67,1111122 
COMPS,ioos:station:USF.COMPS:C12:1,2019-04-05T23:35:00Z,27.4980,-83.7220,95.38,1111122 
COMPS,ioos:station:USF.COMPS:C12:1,2019-04-06T00:05:00Z,27.4980,-83.7220,95.24,1111122 
COMPS,ioos:station:USF.COMPS:C12:1,2019-04-06T00:35:00Z,27.4980,-83.7220,95.72,1111122 
COMPS,ioos:station:USF.COMPS:C12:1,2019-04-06T01:05:00Z,27.4980,-83.7220,96.09,1111122 
COMPS,ioos:station:USF.COMPS:C12:1,2019-04-06T01:35:00Z,27.4980,-83.7220,96.43,1111122 
COMPS,ioos:station:USF.COMPS:C12:1,2019-04-06T02:05:00Z,27.4980,-83.7220,96.41,1111122 
COMPS,ioos:station:USF.COMPS:C12:1,2019-04-06T02:35:00Z,27.4980,-83.7220,96.52,1111122 
COMPS,ioos:station:USF.COMPS:C12:1,2019-04-06T03:05:00Z,27.4980,-83.7220,96.62,1111122 
COMPS,ioos:station:USF.COMPS:C12:1,2019-04-06T03:35:00Z,27.4980,-83.7220,96.9,1111122 
COMPS,ioos:station:USF.COMPS:C12:1,2019-04-06T04:05:00Z,27.4980,-83.7220,97.05,1111122 
COMPS,ioos:station:USF.COMPS:C12:1,2019-04-06T04:35:00Z,27.4980,-83.7220,96.85,1111122 
COMPS,ioos:station:USF.COMPS:C12:1,2019-04-06T05:05:00Z,27.4980,-83.7220,96.98,1111122 
COMPS,ioos:station:USF.COMPS:C12:1,2019-04-06T05:35:00Z,27.4980,-83.7220,97.24,1111122 
COMPS,ioos:station:USF.COMPS:C12:1,2019-04-06T06:05:00Z,27.4980,-83.7220,97.39,1111122 
COMPS,ioos:station:USF.COMPS:C12:1,2019-04-06T06:35:00Z,27.4980,-83.7220,97.79,1111122 
COMPS,ioos:station:USF.COMPS:C12:1,2019-04-06T07:05:00Z,27.4980,-83.7220,97.73,1111122 
COMPS,ioos:station:USF.COMPS:C12:1,2019-04-06T07:35:00Z,27.4980,-83.7220,97.71,1111122 
COMPS,ioos:station:USF.COMPS:C12:1,2019-04-06T08:05:00Z,27.4980,-83.7220,97.94,1111122 
COMPS,ioos:station:USF.COMPS:C12:1,2019-04-06T08:35:00Z,27.4980,-83.7220,98.34,1111122 
COMPS,ioos:station:USF.COMPS:C12:1,2019-04-06T09:05:00Z,27.4980,-83.7220,98.46,1111122 
COMPS,ioos:station:USF.COMPS:C12:1,2019-04-06T09:35:00Z,27.4980,-83.7220,98.45,1111122 
COMPS,ioos:station:USF.COMPS:C12:1,2019-04-06T10:05:00Z,27.4980,-83.7220,98.38,1111122 
COMPS,ioos:station:USF.COMPS:C12:1,2019-04-06T10:35:00Z,27.4980,-83.7220,98.22,1111122 
COMPS,ioos:station:USF.COMPS:C12:1,2019-04-06T11:05:00Z,27.4980,-83.7220,98.66,1111122 
COMPS,ioos:station:USF.COMPS:C12:1,2019-04-06T11:35:00Z,27.4980,-83.7220,98.11,1111122 
COMPS,ioos:station:USF.COMPS:C12:1,2019-04-06T12:05:00Z,27.4980,-83.7220,97.88,1111122 
COMPS,ioos:station:USF.COMPS:C12:1,2019-04-06T12:35:00Z,27.4980,-83.7220,97.53,1111122 
COMPS,ioos:station:USF.COMPS:C12:1,2019-04-06T13:05:00Z,27.4980,-83.7220,97.37,1111122 
COMPS,ioos:station:USF.COMPS:C12:1,2019-04-06T13:35:00Z,27.4980,-83.7220,97.05,1111122 
COMPS,ioos:station:USF.COMPS:C12:1,2019-04-06T14:05:00Z,27.4980,-83.7220,96.54,1111122 
COMPS,ioos:station:USF.COMPS:C12:1,2019-04-06T14:35:00Z,27.4980,-83.7220,96.29,1111122 
COMPS,ioos:station:USF.COMPS:C12:1,2019-04-06T15:05:00Z,27.4980,-83.7220,96.19,1111122 
COMPS,ioos:station:USF.COMPS:C12:1,2019-04-06T15:35:00Z,27.4980,-83.7220,96.14,1111122 
COMPS,ioos:station:USF.COMPS:C12:1,2019-04-06T16:05:00Z,27.4980,-83.7220,95.93,1111122 
COMPS,ioos:station:USF.COMPS:C12:1,2019-04-06T16:35:00Z,27.4980,-83.7220,95.75,1111122 
COMPS,ioos:station:USF.COMPS:C12:1,2019-04-06T17:05:00Z,27.4980,-83.7220,95.49,1111122 
COMPS,ioos:station:USF.COMPS:C12:1,2019-04-06T17:35:00Z,27.4980,-83.7220,95.18,1111122 